• Em Portugal
  • Lista de países
  • Para 7 dias
  • Temperatura da água
  • Mapas de satélite
  • Mapa do tempo
  • Widgets de tempo
  • user-avatar
    Iniciar Sessão

    Previsão horária em Recife

    Hoje, 17 Julho, Terça-feira

    Tempo Temperatura Precipitação Vento Pressão Humidade
    00:00 +23°C° 0 mm 4 m/s 762 mmHg 82%
    01:00 +23°C° 0 mm 4 m/s 762 mmHg 83%
    02:00 +23°C° 0,1 mm 4 m/s 762 mmHg 84%
    03:00 +23°C° 0,1 mm 4 m/s 762 mmHg 86%
    04:00 +23°C° 0 mm 4 m/s 761 mmHg 89%
    05:00 +23°C° 0,1 mm 4 m/s 761 mmHg 89%
    06:00 +23°C° 0,1 mm 4 m/s 761 mmHg 89%
    07:00 +23°C° 0,1 mm 4 m/s 761 mmHg 89%
    08:00 +26°C° 0,1 mm 5 m/s 762 mmHg 81%
    09:00 +27°C° 0,1 mm 5 m/s 762 mmHg 73%
    10:00 +29°C° 0,1 mm 6 m/s 762 mmHg 66%
    11:00 +29°C° 0 mm 6 m/s 762 mmHg 62%
    12:00 +30°C° 0 mm 6 m/s 762 mmHg 59%
    13:00 +32°C° 0 mm 5 m/s 762 mmHg 55%
    14:00 +30°C° 0 mm 5 m/s 761 mmHg 57%
    15:00 +30°C° 0 mm 5 m/s 761 mmHg 60%
    16:00 +30°C° 0 mm 5 m/s 761 mmHg 62%
    17:00 +28°C° 0,1 mm 5 m/s 761 mmHg 69%
    18:00 +27°C° 0,1 mm 5 m/s 761 mmHg 75%
    19:00 +26°C° 0,1 mm 5 m/s 761 mmHg 82%
    20:00 +25°C° 0,3 mm 5 m/s 761 mmHg 84%
    21:00 +25°C° 0,3 mm 5 m/s 762 mmHg 87%
    22:00 +25°C° 0,3 mm 5 m/s 762 mmHg 89%
    23:00 +25°C° 0,4 mm 5 m/s 762 mmHg 89%

    Amanhã, 18 Julho, Quarta-feira

    Tempo Temperatura Precipitação Vento Pressão Humidade
    00:00 +25°C° 0,4 mm 5 m/s 762 mmHg 90%
    01:00 +25°C° 0,4 mm 5 m/s 762 mmHg 90%
    02:00 +25°C° 0,5 mm 5 m/s 761 mmHg 90%
    03:00 +25°C° 0,5 mm 5 m/s 761 mmHg 89%
    04:00 +24°C° 0,5 mm 6 m/s 760 mmHg 89%
    05:00 +25°C° 0,3 mm 5 m/s 761 mmHg 89%
    06:00 +25°C° 0,3 mm 5 m/s 761 mmHg 89%
    07:00 +25°C° 0,3 mm 5 m/s 761 mmHg 89%
    08:00 +26°C° 0,3 mm 6 m/s 761 mmHg 86%
    09:00 +26°C° 0,3 mm 6 m/s 762 mmHg 83%
    10:00 +27°C° 0,3 mm 6 m/s 762 mmHg 80%
    11:00 +28°C° 0,3 mm 6 m/s 762 mmHg 76%
    12:00 +28°C° 0,3 mm 6 m/s 762 mmHg 73%
    13:00 +29°C° 0,3 mm 7 m/s 761 mmHg 70%
    14:00 +29°C° 0,3 mm 6 m/s 761 mmHg 70%
    15:00 +28°C° 0,3 mm 6 m/s 760 mmHg 71%
    16:00 +28°C° 0,3 mm 6 m/s 760 mmHg 71%
    17:00 +27°C° 0,1 mm 6 m/s 760 mmHg 73%
    18:00 +26°C° 0,1 mm 5 m/s 760 mmHg 74%
    19:00 +26°C° 0,1 mm 5 m/s 760 mmHg 76%
    20:00 +25°C° 0 mm 5 m/s 761 mmHg 76%
    21:00 +25°C° 0 mm 5 m/s 761 mmHg 76%
    22:00 +25°C° 0 mm 4 m/s 761 mmHg 76%
    23:00 +25°C° 0 mm 4 m/s 761 mmHg 78%

    Depois de amanhã, 19 Julho, Quinta-feira

    Tempo Temperatura Precipitação Vento Pressão Humidade
    00:00 +23°C° 0 mm 4 m/s 761 mmHg 79%
    01:00 +23°C° 0 mm 4 m/s 761 mmHg 81%
    02:00 +23°C° 0,1 mm 4 m/s 760 mmHg 82%
    03:00 +23°C° 0,1 mm 4 m/s 760 mmHg 84%
    04:00 +23°C° 0,1 mm 4 m/s 759 mmHg 86%
    05:00 +23°C° 0,1 mm 4 m/s 760 mmHg 86%
    06:00 +23°C° 0,1 mm 4 m/s 760 mmHg 87%
    07:00 +23°C° 0,1 mm 4 m/s 760 mmHg 88%
    08:00 +25°C° 0,2 mm 4 m/s 760 mmHg 83%
    09:00 +27°C° 0,2 mm 5 m/s 761 mmHg 78%
    10:00 +28°C° 0,2 mm 5 m/s 761 mmHg 73%
    11:00 +29°C° 0,1 mm 5 m/s 761 mmHg 69%
    12:00 +29°C° 0,1 mm 5 m/s 761 mmHg 64%
    13:00 +30°C° 0,1 mm 5 m/s 760 mmHg 60%
    14:00 +30°C° 0 mm 5 m/s 760 mmHg 60%
    15:00 +30°C° 0 mm 5 m/s 759 mmHg 60%
    16:00 +30°C° 0 mm 5 m/s 759 mmHg 60%
    17:00 +28°C° 0 mm 5 m/s 759 mmHg 67%
    18:00 +27°C° 0 mm 4 m/s 760 mmHg 73%
    19:00 +26°C° 0 mm 4 m/s 760 mmHg 80%
    20:00 +26°C° 0 mm 4 m/s 760 mmHg 81%
    21:00 +25°C° 0 mm 4 m/s 761 mmHg 83%
    22:00 +25°C° 0 mm 4 m/s 761 mmHg 84%
    23:00 +25°C° 0 mm 4 m/s 761 mmHg 84%

    20 Julho, Sexta-feira

    Tempo Temperatura Precipitação Vento Pressão Humidade
    00:00 +25°C° 0 mm 4 m/s 760 mmHg 85%
    01:00 +25°C° 0 mm 4 m/s 760 mmHg 85%
    02:00 +25°C° 0,1 mm 4 m/s 760 mmHg 85%
    03:00 +25°C° 0,1 mm 4 m/s 759 mmHg 86%
    04:00 +25°C° 0,1 mm 4 m/s 759 mmHg 86%
    05:00 +25°C° 0,1 mm 5 m/s 759 mmHg 86%
    06:00 +25°C° 0,1 mm 5 m/s 759 mmHg 87%
    07:00 +25°C° 0,1 mm 5 m/s 760 mmHg 87%
    08:00 +26°C° 0,2 mm 5 m/s 760 mmHg 82%
    09:00 +27°C° 0,2 mm 6 m/s 761 mmHg 77%
    10:00 +29°C° 0,2 mm 6 m/s 761 mmHg 72%
    11:00 +29°C° 0,3 mm 6 m/s 761 mmHg 72%
    12:00 +28°C° 0,3 mm 6 m/s 760 mmHg 72%
    13:00 +28°C° 0,3 mm 6 m/s 760 mmHg 72%
    14:00 +28°C° 0,3 mm 6 m/s 760 mmHg 74%
    15:00 +28°C° 0,3 mm 6 m/s 759 mmHg 76%
    16:00 +28°C° 0,3 mm 6 m/s 759 mmHg 78%
    17:00 +27°C° 0,1 mm 5 m/s 759 mmHg 80%
    18:00 +26°C° 0,1 mm 5 m/s 760 mmHg 83%
    19:00 +26°C° 0,1 mm 5 m/s 760 mmHg 85%
    20:00 +26°C° 0,1 mm 5 m/s 760 mmHg 86%
    21:00 +25°C° 0,1 mm 4 m/s 761 mmHg 87%
    22:00 +25°C° 0,1 mm 4 m/s 761 mmHg 87%
    23:00 +25°C° 0,2 mm 4 m/s 761 mmHg 88%

    21 Julho, Sábado

    Tempo Temperatura Precipitação Vento Pressão Humidade
    00:00 +25°C° 0,2 mm 4 m/s 760 mmHg 88%
    01:00 +25°C° 0,2 mm 4 m/s 760 mmHg 89%
    02:00 +25°C° 0,2 mm 4 m/s 760 mmHg 89%
    03:00 +25°C° 0,2 mm 4 m/s 759 mmHg 89%
    04:00 +25°C° 0,2 mm 4 m/s 759 mmHg 90%
    05:00 +25°C° 0,2 mm 4 m/s 759 mmHg 89%
    06:00 +25°C° 0,2 mm 5 m/s 760 mmHg 89%
    07:00 +25°C° 0,2 mm 5 m/s 760 mmHg 89%
    08:00 +26°C° 0,1 mm 5 m/s 761 mmHg 83%
    09:00 +28°C° 0,1 mm 5 m/s 761 mmHg 76%
    10:00 +29°C° 0,1 mm 6 m/s 761 mmHg 70%
    11:00 +30°C° 0 mm 6 m/s 761 mmHg 68%
    12:00 +30°C° 0 mm 6 m/s 761 mmHg 65%
    13:00 +32°C° 0 mm 6 m/s 760 mmHg 62%
    14:00 +30°C° 0 mm 6 m/s 760 mmHg 64%
    15:00 +30°C° 0 mm 6 m/s 760 mmHg 65%
    16:00 +30°C° 0 mm 6 m/s 759 mmHg 66%
    17:00 +29°C° 0 mm 5 m/s 760 mmHg 71%
    18:00 +27°C° 0 mm 5 m/s 760 mmHg 75%
    19:00 +26°C° 0 mm 5 m/s 760 mmHg 80%
    20:00 +26°C° 0 mm 5 m/s 761 mmHg 81%
    21:00 +26°C° 0 mm 5 m/s 761 mmHg 83%
    22:00 +26°C° 0 mm 5 m/s 761 mmHg 85%
    23:00 +25°C° 0,1 mm 5 m/s 761 mmHg 86%

    22 Julho, Domingo

    Tempo Temperatura Precipitação Vento Pressão Humidade
    00:00 +25°C° 0,1 mm 5 m/s 761 mmHg 87%
    01:00 +25°C° 0,1 mm 5 m/s 760 mmHg 88%
    02:00 +25°C° 0,1 mm 5 m/s 760 mmHg 88%
    03:00 +25°C° 0,1 mm 5 m/s 760 mmHg 88%
    04:00 +25°C° 0,1 mm 5 m/s 760 mmHg 88%
    05:00 +25°C° 0,1 mm 5 m/s 760 mmHg 88%
    06:00 +25°C° 0,1 mm 5 m/s 760 mmHg 88%
    07:00 +25°C° 0,1 mm 5 m/s 761 mmHg 88%
    08:00 +26°C° 0,1 mm 5 m/s 761 mmHg 82%
    09:00 +28°C° 0,1 mm 6 m/s 761 mmHg 75%
    10:00 +29°C° 0,1 mm 6 m/s 761 mmHg 69%
    11:00 +30°C° 0,1 mm 6 m/s 761 mmHg 67%
    12:00 +30°C° 0,1 mm 6 m/s 761 mmHg 64%
    13:00 +32°C° 0,1 mm 6 m/s 761 mmHg 62%
    14:00 +30°C° 0 mm 6 m/s 760 mmHg 63%
    15:00 +30°C° 0 mm 6 m/s 760 mmHg 64%
    16:00 +30°C° 0 mm 6 m/s 760 mmHg 65%
    17:00 +29°C° 0 mm 6 m/s 760 mmHg 70%
    18:00 +28°C° 0 mm 5 m/s 760 mmHg 74%
    19:00 +27°C° 0 mm 5 m/s 761 mmHg 79%
    20:00 +26°C° 0,1 mm 5 m/s 761 mmHg 81%
    21:00 +26°C° 0,1 mm 5 m/s 761 mmHg 84%
    22:00 +26°C° 0,1 mm 5 m/s 761 mmHg 86%
    23:00 +26°C° 0,2 mm 5 m/s 761 mmHg 87%
    Mostrar mais